Location: Tamazert
(32.6352°N, 5.2072°W)
Time: 16:47:30
(UTC+00:00)

BlueWalker 3 - Pass Details

Date: 06 March 2024
Orbit: 485 x 496 km, 53.2° (Epoch: 11 April)

Event Time Altitude Azimuth Distance (km) Brightness Sun altitude
Rises 20:56:51 0° 293° (WNW) 2,546 6.6 -33.0°
Reaches altitude 10° 21:00:03 10° 264° (W) 1,661 5.3 -33.7°
Enters shadow 21:00:17 11° 260° (W) 1,621 5.2 -33.7°
